CAPE
0 0 0 0 0 0 0 0 0 0 0 0 0 0 438 1991 1517 1879 2057 1844 1570 1945 2405 2319 2214 2262 2286 2227 1977 1579 1493 1517 1490 1449 1407 1438 1622 1538 1352 1495 1812 1736 1622 846 590 484 199 324 337
0 0 0 0 0 0 0 0 0 0 0 0 0 0 534 2549 2560 2320 1907 1967 1832 1867 2102 2224 2274 2187 2234 2173 1852 1522 1566 1518 1454 1436 1443 1503 1652 1654 1492 1531 1743 1821 1307 822 348 174 196 340 319
0 0 0 0 0 0 0 0 0 0 0 0 0 0 136 1659 2445 1921 1999 2230 2172 1675 1839 2325 2372 2085 2204 2164 1808 1506 1536 1504 1488 1522 1496 1527 1679 1693 1595 1508 1463 1601 1092 695 233 196 432 364 307
0 0 0 0 0 0 0 0 0 0 0 0 0 0 158 733 1844 1734 2312 2531 2316 2011 1815 2476 2493 2232 2193 2126 1814 1576 1591 1540 1509 1558 1542 1533 1669 1562 1685 1582 1420 1177 818 508 550 801 732 606 486
0 0 0 0 0 0 0 0 0 0 0 0 0 0 686 1612 1758 1698 2587 2677 2503 1943 1852 2248 2473 2450 2342 2151 1897 1701 1622 1491 1496 1588 1586 1592 1629 1619 1723 1650 1443 1070 857 923 874 954 842 821 759
0 0 0 0 0 0 0 0 0 0 0 0 0 0 492 1563 1880 1707 2439 2618 2596 2165 1903 2036 2485 2430 2230 2055 1839 1660 1552 1448 1457 1528 1588 1585 1552 1629 1630 1511 1312 940 782 890 986 923 870 821 867
0 0 0 0 0 0 0 0 0 0 0 0 1 0 155 1458 1977 1818 1837 2447 2559 2369 2086 1851 2180 2335 2275 1946 1740 1622 1461 1385 1398 1409 1484 1497 1447 1482 1481 1293 1056 856 833 848 874 819 868 879 945
0 0 0 0 0 0 0 0 0 0 0 0 0 0 5 1385 1700 1896 1986 2201 2631 2513 2143 1765 1897 1962 1669 1780 1850 1634 1461 1410 1352 1434 1486 1460 1427 1367 1320 987 904 899 957 961 916 757 700 736 750
0 0 0 0 0 0 0 0 0 0 0 0 0 0 107 379 418 1222 2180 1875 2658 2617 2322 1520 1541 1634 1523 1677 1664 1741 1791 1651 1496 1518 1501 1242 1048 1145 1101 864 902 920 969 1018 1019 933 728 646 657
0 0 0 0 0 0 0 0 0 0 0 0 0 0 0 8 10 486 964 1639 2118 2222 1913 1335 1301 1481 1452 1538 1787 1557 1522 1489 1348 1314 1286 939 676 764 673 619 838 1007 887 875 1022 999 916 832 129
0 0 0 0 0 0 0 0 0 0 0 0 0 0 0 0 0 0 54 867 1736 1521 1368 1229 965 1022 1176 1356 1426 1469 1546 1391 1273 1241 1101 821 562 527 558 383 332 545 797 389 490 450 537 398 128
0 0 0 0 0 0 0 0 0 0 0 0 0 0 0 0 0 0 54 780 1583 1154 819 586 608 535 753 1042 878 1192 1239 1346 1264 1258 1193 662 513 341 499 254 199 337 246 183 46 45 29 31 14
0 0 0 0 0 0 0 0 0 0 0 0 0 0 0 0 0 0 0 1363 1626 1337 673 426 341 539 474 803 693 597 795 835 773 748 816 655 268 174 591 347 342 236 245 163 74 61 31 2 3
0 0 0 0 0 0 0 0 0 0 0 0 0 0 0 0 0 0 0 1048 1427 1309 1017 539 276 65 191 862 906 803 907 591 657 589 630 779 577 326 709 580 541 470 623 504 207 107 73 48 34
0 0 0 0 0 0 0 0 0 0 0 0 0 0 0 0 0 0 0 1101 1318 1086 852 447 112 51 227 1199 1183 1470 1531 1432 1089 1105 1024 1082 1150 1017 1405 1286 731 621 599 718 848 621 410 431 235
0 0 0 0 0 0 0 0 0 0 0 0 0 0 0 0 0 0 0 1281 1173 586 404 106 201 367 918 1214 1007 1503 1802 1827 1485 1360 1493 1621 1581 1241 993 815 863 919 931 814 669 897 858 477 454
0 0 0 0 0 0 0 0 0 0 0 0 0 0 0 0 0 0 0 1360 1119 578 409 412 316 835 857 459 693 1855 2082 1784 1433 1158 1223 1387 1259 1244 638 366 541 662 564 388 217 162 162 251 280
0 0 0 0 0 0 0 0 0 0 0 0 0 0 0 0 0 0 302 1798 1571 884 530 637 466 532 715 919 1847 2358 2464 2219 1418 1083 219 1407 1701 1202 702 309 437 409 194 58 30 32 98 38 53
0 0 0 0 0 0 0 0 0 0 0 0 0 0 0 0 0 57 756 1066 2085 1918 1515 1287 1267 1403 1793 2375 2254 2062 2690 2237 2053 2033 1851 1502 1460 1034 550 245 83 123 96 20 0 57 50 119 31
0 0 0 0 0 0 0 0 0 0 0 0 0 0 0 0 0 48 859 1232 1068 1280 1968 1940 2054 2156 2356 2354 1638 1132 1460 1571 1498 1489 1615 1556 1617 1471 1150 558 584 218 148 152 243 66 69 17 18
0 0 0 0 0 0 0 0 0 0 0 0 0 0 0 0 14 790 1209 1454 1484 1512 1535 1667 1679 1899 1869 1820 1487 857 710 612 929 1057 1255 1002 1525 1521 1160 1037 1019 1116 1020 479 256 40 22 1 0
0 0 0 0 0 0 0 0 0 0 0 0 0 1 0 3 428 1220 1098 1200 1325 1358 1456 1488 1368 1148 1127 1687 1821 1428 1173 857 544 471 534 319 257 188 115 127 760 1005 688 320 142 50 0 1 0
0 0 0 0 0 0 0 0 0 0 0 0 0 3 18 68 752 787 823 862 1119 1365 1396 1288 989 641 554 1121 1037 957 892 781 638 334 169 132 119 54 16 3 63 272 228 294 360 479 221 36 14
0 0 0 0 0 0 0 0 0 0 0 0 0 15 191 387 421 457 531 469 253 166 198 232 271 178 49 96 298 252 120 52 36 37 32 4 2 0 0 0 0 0 0 0 8 181 286 663 501
1 0 0 0 0 0 0 0 0 0 3 0 1 259 169 210 254 279 331 174 46 15 0 0 0 0 0 5 15 5 0 0 0 0 0 0 0 0 0 0 0 0 0 0 0 0 0 7 230
0 0 0 0 0 0 0 0 0 0 58 25 274 204 100 110 128 91 57 13 13 9 0 0 0 0 0 0 0 0 0 0 0 0 0 0 0 0 0 0 0 0 0 0 0 0 0 0 0
0 0 0 0 50 34 14 12 0 21 101 152 183 117 72 102 55 48 0 0 0 0 0 0 0 0 0 0 0 0 0 0 0 0 0 0 0 0 0 0 0 0 0 0 0 0 0 0 0
0 0 0 0 0 0 4 37 116 14 52 50 90 117 107 7 6 5 0 0 0 0 0 0 0 0 0 0 0 0 0 0 0 0 0 0 0 0 0 0 0 0 0 0 0 0 0 0 0
4 14 1 32 2 0 0 24 110 21 56 22 62 72 32 0 5 0 0 0 0 0 0 0 0 0 0 0 0 0 0 0 0 0 0 0 0 0 0 0 0 0 0 0 0 0 0 0 0
0 0 19 0 45 47 18 54 95 0 42 48 19 32 7 9 4 0 0 0 0 0 0 0 0 0 0 0 0 0 0 0 0 0 0 0 0 0 0 0 0 0 0 0 0 0 0 0 0
CIN
0 0 0 0 0 0 0 0 0 0 0 0 0 0 -38 -55 -70 -57 -92 -82 -149 -425 -307 -295 -332 -304 -272 -224 -216 -238 -208 -182 -160 -137 -100 -68 -28 -23 -22 -8 0 0 0 -48 -94 -109 -258 -151 -131
0 0 0 0 0 0 0 0 0 0 0 0 0 0 -48 -38 -95 -70 -154 -149 -83 -456 -360 -307 -293 -302 -271 -249 -255 -269 -215 -199 -165 -124 -102 -66 -21 -16 -14 -3 0 0 -6 -48 -197 -303 -264 -153 -132
0 0 0 0 0 0 0 0 0 0 0 0 0 0 -32 -37 -105 -94 -136 -164 -116 -130 -412 -286 -240 -272 -240 -234 -269 -282 -225 -206 -178 -127 -93 -58 -15 -4 -7 -5 -6 -1 -18 -84 -250 -260 -127 -142 -158
0 0 0 0 0 0 0 0 0 0 0 0 0 0 -83 -53 -69 -84 -114 -123 -133 -137 -392 -238 -180 -180 -195 -196 -229 -247 -214 -185 -161 -125 -93 -59 -25 -15 -1 -4 -11 -16 -42 -107 -98 -40 -54 -80 -98
0 0 0 0 0 0 0 0 0 0 0 0 0 0 -55 -54 -66 -99 -89 -108 -155 -235 -338 -223 -153 -139 -139 -145 -159 -175 -167 -175 -154 -113 -90 -64 -32 -13 0 0 -5 -26 -65 -59 -57 -43 -64 -54 -53
0 0 0 0 0 0 0 0 0 0 0 0 0 0 -69 -47 -49 -72 -53 -100 -155 -260 -252 -252 -128 -97 -96 -111 -131 -132 -127 -147 -136 -118 -87 -64 -46 -13 -1 0 -3 -33 -59 -51 -50 -67 -80 -87 -78
0 0 0 0 0 0 0 0 0 0 0 0 -12 0 -33 -34 -32 -36 -52 -55 -204 -221 -148 -245 -144 -82 -67 -100 -129 -144 -162 -164 -142 -130 -99 -72 -58 -32 -11 -15 -14 -27 -37 -49 -58 -74 -70 -72 -81
0 0 0 0 0 0 0 0 0 0 0 0 0 0 -2 -21 -11 -9 -25 -28 -152 -210 -158 -114 -145 -95 -135 -97 -66 -87 -112 -118 -129 -107 -81 -57 -32 -15 -10 -52 -56 -52 -41 -40 -35 -57 -71 -73 -77
0 0 0 0 0 0 0 0 0 0 0 0 0 0 -54 -47 -17 -10 -13 -13 -78 -108 -151 -195 -190 -98 -89 -60 -61 -52 -53 -76 -91 -66 -51 -70 -88 -50 -35 -68 -56 -56 -48 -44 -43 -50 -77 -89 -97
0 0 0 0 0 0 0 0 0 0 0 0 0 0 0 -32 -22 -7 -24 -7 -40 -58 -77 -45 -287 -172 -91 -49 -32 -36 -31 -51 -75 -65 -68 -107 -167 -133 -146 -149 -56 -29 -59 -53 -33 -39 -54 -73 -231
0 0 0 0 0 0 0 0 0 0 0 0 0 0 0 0 0 0 -76 -4 -36 -51 -36 -1 -109 -77 -74 -100 -92 -70 -53 -57 -67 -76 -101 -168 -207 -170 -152 -181 -183 -96 -49 -137 -137 -140 -133 -164 -224
0 0 0 0 0 0 0 0 0 0 0 0 0 0 0 0 0 0 -37 -95 -40 -47 -40 -36 -41 -94 -66 -56 -130 -104 -94 -67 -71 -81 -86 -165 -192 -211 -145 -206 -194 -173 -169 -183 -277 -306 -381 -406 -449
0 0 0 0 0 0 0 0 0 0 0 0 0 0 0 0 0 0 0 -276 -44 -39 -57 -81 -49 -162 -149 -93 -79 -71 -123 -118 -130 -105 -125 -164 -272 -260 -76 -104 -89 -145 -168 -189 -251 -302 -360 -454 -97
0 0 0 0 0 0 0 0 0 0 0 0 0 0 0 0 0 0 0 -212 -102 -54 -46 -11 -6 -34 -220 -79 -214 -79 -125 -51 -37 -34 -64 -119 -148 -148 -71 -12 -50 -46 -6 -14 -114 -94 -129 -124 -142
0 0 0 0 0 0 0 0 0 0 0 0 0 0 0 0 0 0 0 -190 -76 -48 -50 -52 -76 -39 -354 -158 -109 -21 -32 -41 -54 -16 -8 -64 -62 -2 -33 -21 -20 -20 -39 -23 -23 -10 -14 -26 -12
0 0 0 0 0 0 0 0 0 0 0 0 0 0 0 0 0 0 0 -201 -28 -17 -5 -9 -254 -161 -186 -70 -169 -74 -40 -38 -42 -17 -26 -44 -32 -17 -19 -18 -22 -20 -24 -34 -21 -40 -11 -16 -14
0 0 0 0 0 0 0 0 0 0 0 0 0 0 0 0 0 0 0 -233 -30 -12 -5 -356 -257 -123 -158 -82 -150 -112 -50 -40 -81 -29 -30 -34 -46 -41 -109 -225 -88 -46 -51 -45 -38 -74 -9 -78 -29
0 0 0 0 0 0 0 0 0 0 0 0 0 0 0 0 0 0 -101 -80 -130 -80 -71 -321 -288 -267 -282 -238 -106 -42 -64 -44 -32 -38 -255 -120 -29 -27 -92 -203 -58 -126 -112 -101 -319 -246 -47 -31 -44
0 0 0 0 0 0 0 0 0 0 0 0 0 0 0 0 0 -28 -106 -56 -71 -168 -157 -33 -73 -170 -100 -25 -16 -12 -11 -13 -50 -38 -28 -52 -37 -22 -32 -37 -145 -105 -32 -37 -2 -43 -8 -13 0
0 0 0 0 0 0 0 0 0 0 0 0 0 0 0 0 0 -21 -46 -186 -153 -49 -47 -47 -44 -35 -25 -27 -13 -33 -20 -45 -40 -30 -23 -10 -10 -16 -21 -20 -29 -154 -119 -136 -27 -28 -32 -51 -31
0 0 0 0 0 0 0 0 0 0 0 0 -2 0 0 0 -68 -143 -158 -138 -167 -135 -116 -36 -24 -21 -21 -22 -17 -99 -51 -77 -44 -43 -31 -28 -5 -14 -25 -18 -32 -3 0 -43 -58 -38 -19 -54 0
0 0 0 0 0 0 -3 0 0 0 0 0 -2 -8 0 -84 -131 -165 -129 -118 -118 -129 -125 -115 -91 -66 -63 -88 -61 -78 -88 -98 -95 -97 -99 -70 -56 -54 -51 -56 -25 -7 -17 -52 -44 -61 0 -121 0
0 0 0 0 0 0 0 0 0 0 0 0 -4 -22 -65 -120 -129 -133 -128 -145 -124 -121 -115 -106 -118 -94 -125 -61 -50 -51 -59 -74 -74 -80 -87 -124 -79 -85 -67 -58 -194 -74 -102 -47 -45 -16 -40 -48 -74
0 0 0 0 0 0 0 0 0 0 0 0 -3 -14 -135 -148 -121 -114 -128 -152 -155 -148 -137 -131 -140 -111 -230 -211 -152 -135 -145 -171 -157 -153 -150 -64 -30 0 0 0 0 0 0 0 -85 -29 -6 -1 0
-3 0 0 0 0 0 0 0 0 0 -43 0 -5 -87 -83 -97 -90 -97 -107 -143 -298 -481 0 0 0 0 0 -89 -80 -67 0 0 0 0 0 0 0 0 0 0 0 0 0 0 0 0 0 -6 -7
0 0 0 0 0 0 0 0 0 0 -84 -34 -102 -49 -53 -36 -73 -77 -74 -338 -395 -420 0 0 0 0 0 0 0 0 0 0 0 0 0 0 0 0 0 0 0 0 0 0 0 0 0 0 0
-1 0 0 0 -58 -44 -22 -12 0 -79 -49 -54 -34 -37 -52 -58 -32 -32 0 0 0 0 0 0 0 0 0 0 0 0 0 0 0 0 0 0 0 0 0 0 0 0 0 0 0 0 0 0 0
-3 0 0 -1 0 0 -40 -33 -79 -66 -68 -30 -44 -41 -59 -9 -43 -162 0 0 0 0 0 0 0 0 0 0 0 0 0 0 0 0 0 0 0 0 0 0 0 0 0 0 0 0 0 0 0
-2 -4 -4 -26 -32 0 0 -22 -155 -36 -63 -45 -70 -59 -90 -2 -68 0 0 0 0 0 0 0 0 0 0 0 0 0 0 0 0 0 0 0 0 0 0 0 0 0 0 0 0 0 0 0 0
0 0 -41 0 -19 -26 -29 -37 -124 -7 -32 -22 -40 -28 -32 -35 -64 0 0 0 0 0 0 0 0 0 0 0 0 0 0 0 0 0 0 0 0 0 0 0 0 0 0 0 0 0 0 0 0
Wind_Speed
nan nan nan nan nan nan nan nan nan nan nan nan nan nan 44 51 42 39 28 26 34 28 25 25 28 29 30 30 29 26 25 27 24 22 21 21 22 24 23 24 24 24 24 24 22 20 20 19 16
nan nan nan nan nan nan nan nan nan nan nan nan nan nan 42 57 42 39 38 31 33 27 27 27 26 27 28 32 32 31 29 27 27 27 24 23 22 25 26 25 25 25 27 27 25 23 23 22 20
nan nan nan nan nan nan nan nan nan nan nan nan nan nan 42 48 47 35 38 37 38 31 27 24 27 26 27 28 29 28 30 32 31 26 25 26 25 25 24 25 27 27 28 30 28 26 24 24 23
nan nan nan nan nan nan nan nan nan nan nan nan nan nan 51 43 43 42 43 34 36 37 35 32 30 27 26 28 28 26 26 27 28 28 25 25 25 26 24 25 24 25 26 27 29 28 28 28 23
nan nan nan nan nan nan nan nan nan nan nan nan nan nan 59 52 54 45 48 40 35 35 36 33 32 31 31 30 31 30 30 29 28 26 26 27 25 25 25 25 25 24 25 27 27 29 30 29 27
nan nan nan nan nan nan nan nan nan nan nan nan nan nan 50 48 48 41 47 42 37 41 37 36 35 36 36 36 34 33 32 32 30 28 27 28 28 28 26 25 24 25 25 26 28 29 30 29 26
nan nan nan nan nan nan nan nan nan nan nan nan nan nan 54 53 46 40 37 46 40 41 42 38 37 38 39 38 37 37 35 33 32 30 30 28 27 25 25 27 26 24 24 26 29 30 29 28 27
nan nan nan nan nan nan nan nan nan nan nan nan nan nan nan 51 53 51 33 49 44 42 47 45 42 41 39 38 39 37 35 35 34 31 30 30 26 25 23 25 26 27 27 27 27 27 28 29 27
nan nan nan nan nan nan nan nan nan nan nan nan nan nan 56 49 52 50 33 47 51 41 43 48 48 44 43 43 41 39 38 36 34 32 29 27 24 23 24 24 25 27 27 29 29 30 32 32 31
nan nan nan nan nan nan nan nan nan nan nan nan nan nan nan nan nan 43 33 42 55 48 39 44 52 51 47 44 42 39 36 33 33 31 30 27 26 25 26 26 25 27 30 31 30 31 31 31 32
nan nan nan nan nan nan nan nan nan nan nan nan nan nan nan nan nan nan nan 35 52 61 52 54 60 60 43 52 45 40 36 32 30 31 30 27 28 28 27 28 31 31 29 32 33 33 32 33 33
nan nan nan nan nan nan nan nan nan nan nan nan nan nan nan nan nan nan nan 41 58 69 59 55 62 48 51 53 50 48 38 32 29 29 30 29 29 32 33 34 36 35 35 36 nan nan nan nan nan
nan nan nan nan nan nan nan nan nan nan nan nan nan nan nan nan nan nan nan 51 56 60 60 65 54 51 42 46 43 44 34 25 25 26 30 31 31 31 34 36 39 39 40 41 nan nan nan nan nan
nan nan nan nan nan nan nan nan nan nan nan nan nan nan nan nan nan nan nan 48 56 56 55 47 48 nan 39 39 20 27 21 23 26 26 27 30 33 36 35 39 37 37 39 43 43 42 nan nan nan
nan nan nan nan nan nan nan nan nan nan nan nan nan nan nan nan nan nan nan 46 52 53 51 54 51 nan 35 35 34 18 18 28 30 28 35 35 38 40 42 46 39 40 42 42 47 46 50 53 49
nan nan nan nan nan nan nan nan nan nan nan nan nan nan nan nan nan nan nan 44 42 50 48 49 47 46 41 38 30 18 20 28 36 37 36 39 35 43 40 39 36 35 43 53 60 67 55 57 47
nan nan nan nan nan nan nan nan nan nan nan nan nan nan nan nan nan nan nan 42 39 43 43 51 52 46 40 35 30 32 39 40 35 40 41 43 37 40 41 43 24 33 46 36 43 47 50 53 44
nan nan nan nan nan nan nan nan nan nan nan nan nan nan nan nan nan nan 39 42 39 42 42 48 48 47 39 34 29 33 39 42 42 38 42 42 46 45 48 51 49 46 51 nan nan nan nan nan nan
nan nan nan nan nan nan nan nan nan nan nan nan nan nan nan nan nan nan 41 41 41 43 45 47 43 42 37 32 38 37 38 41 36 35 40 42 41 46 46 49 nan 54 nan nan nan nan nan 33 nan
nan nan nan nan nan nan nan nan nan nan nan nan nan nan nan nan nan nan 44 52 53 52 49 47 41 36 33 35 33 35 37 33 34 33 34 35 36 33 31 29 36 38 43 50 52 nan nan nan nan
nan nan nan nan nan nan nan nan nan nan nan nan nan nan nan nan nan 49 55 53 56 53 51 45 39 38 37 34 33 31 33 32 30 29 29 30 33 29 29 27 27 35 39 41 42 nan nan nan nan
nan nan nan nan nan nan nan nan nan nan nan nan nan nan nan nan 48 55 57 56 54 42 41 40 40 40 41 36 33 34 33 33 30 31 26 30 29 34 38 37 35 41 42 42 43 nan nan nan nan
nan nan nan nan nan nan nan nan nan nan nan nan nan nan nan nan 50 52 54 53 37 39 36 36 37 38 38 39 39 38 40 36 31 32 33 31 34 nan nan nan nan 41 40 41 42 40 47 nan nan
nan nan nan nan nan nan nan nan nan nan nan nan nan nan 54 48 56 55 45 38 36 39 39 38 39 36 nan nan 42 43 44 nan nan nan nan nan nan nan nan nan nan nan nan nan nan 43 40 41 45
nan nan nan nan nan nan nan nan nan nan nan nan nan 44 49 46 56 56 44 39 nan nan nan nan nan nan nan nan nan nan nan nan nan nan nan nan nan nan nan nan nan nan nan nan nan nan nan nan 35
nan nan nan nan nan nan nan nan nan nan nan nan 45 48 48 35 23 nan nan nan nan nan nan nan nan nan nan nan nan nan nan nan nan nan nan nan nan nan nan nan nan nan nan nan nan nan nan nan nan
nan nan nan nan nan nan nan nan nan nan 36 43 44 49 nan 36 nan nan nan nan nan nan nan nan nan nan nan nan nan nan nan nan nan nan nan nan nan nan nan nan nan nan nan nan nan nan nan nan nan
nan nan nan nan nan nan nan nan 26 nan nan nan nan 41 41 nan nan nan nan nan nan nan nan nan nan nan nan nan nan nan nan nan nan nan nan nan nan nan nan nan nan nan nan nan nan nan nan nan nan
nan nan nan nan nan nan nan nan 34 nan nan nan nan nan nan nan nan nan nan nan nan nan nan nan nan nan nan nan nan nan nan nan nan nan nan nan nan nan nan nan nan nan nan nan nan nan nan nan nan
nan nan nan nan nan nan nan nan nan nan nan nan nan nan nan nan nan nan nan nan nan nan nan nan nan nan nan nan nan nan nan nan nan nan nan nan nan nan nan nan nan nan nan nan nan nan nan nan nan
Wind_Direction
nan nan nan nan nan nan nan nan nan nan nan nan nan nan 253 246 253 260 262 281 283 281 284 290 300 307 309 307 304 301 301 301 300 300 296 291 289 290 292 293 295 299 295 292 289 291 295 299 303
nan nan nan nan nan nan nan nan nan nan nan nan nan nan 255 258 248 252 265 279 283 280 275 279 294 300 305 311 311 310 308 302 300 302 303 303 301 300 300 301 302 305 304 299 298 299 302 307 311
nan nan nan nan nan nan nan nan nan nan nan nan nan nan 254 261 257 241 255 266 274 279 275 279 288 292 298 303 307 311 313 311 307 302 297 298 301 300 302 304 307 308 309 307 305 303 303 308 314
nan nan nan nan nan nan nan nan nan nan nan nan nan nan 262 250 249 255 270 266 267 272 272 281 287 289 289 290 294 298 302 307 309 309 303 299 298 297 297 300 300 304 308 308 307 306 306 309 311
nan nan nan nan nan nan nan nan nan nan nan nan nan nan 259 250 264 269 278 281 279 277 274 274 278 282 284 284 284 287 294 298 299 303 307 309 306 302 302 302 303 304 306 309 309 309 310 312 316
nan nan nan nan nan nan nan nan nan nan nan nan nan nan 257 266 265 262 276 282 286 282 280 282 281 280 281 283 283 280 282 287 291 294 300 302 305 309 307 306 304 303 304 307 310 311 311 311 314
nan nan nan nan nan nan nan nan nan nan nan nan nan nan 254 255 267 272 275 283 281 282 281 280 282 283 283 285 290 290 290 289 289 289 289 293 302 305 305 307 306 305 306 309 311 311 308 309 310
nan nan nan nan nan nan nan nan nan nan nan nan nan nan nan 264 268 265 271 278 280 277 279 278 277 278 279 277 282 282 282 284 287 289 291 289 291 290 296 300 301 305 307 309 311 312 313 312 311
nan nan nan nan nan nan nan nan nan nan nan nan nan nan 261 263 263 267 273 266 271 268 278 281 280 272 268 269 277 278 282 283 284 286 288 287 287 292 294 296 306 303 307 310 310 312 313 311 310
nan nan nan nan nan nan nan nan nan nan nan nan nan nan nan nan nan 268 267 273 279 275 273 276 277 274 273 271 268 265 271 270 276 280 284 283 290 294 302 305 310 308 307 305 305 308 310 307 295
nan nan nan nan nan nan nan nan nan nan nan nan nan nan nan nan nan nan nan 263 273 271 260 250 256 250 252 264 262 260 261 267 273 282 283 286 282 284 286 285 288 288 293 286 289 292 293 292 293
nan nan nan nan nan nan nan nan nan nan nan nan nan nan nan nan nan nan nan 254 260 267 264 253 251 258 253 254 254 253 250 255 261 274 282 275 269 271 277 278 281 282 280 283 nan nan nan nan nan
nan nan nan nan nan nan nan nan nan nan nan nan nan nan nan nan nan nan nan 264 265 261 264 279 281 284 260 249 237 249 250 254 262 265 275 278 278 277 275 276 279 280 279 281 nan nan nan nan nan
nan nan nan nan nan nan nan nan nan nan nan nan nan nan nan nan nan nan nan 267 267 268 267 276 279 nan 290 297 279 266 246 263 265 275 286 289 280 278 277 278 275 280 281 279 278 276 nan nan nan
nan nan nan nan nan nan nan nan nan nan nan nan nan nan nan nan nan nan nan 268 272 269 275 277 280 nan 294 286 295 300 252 253 259 270 269 281 279 287 277 270 265 271 271 271 270 272 268 264 264
nan nan nan nan nan nan nan nan nan nan nan nan nan nan nan nan nan nan nan 271 265 270 274 276 279 287 287 282 283 243 261 279 280 283 274 272 267 265 262 254 260 269 268 265 261 259 254 259 257
nan nan nan nan nan nan nan nan nan nan nan nan nan nan nan nan nan nan nan 267 269 272 274 277 279 283 290 291 284 237 267 274 268 270 271 276 265 264 269 285 252 281 268 279 272 271 244 253 244
nan nan nan nan nan nan nan nan nan nan nan nan nan nan nan nan nan nan 260 269 269 268 270 271 272 278 276 275 263 254 269 271 271 269 277 277 275 279 276 277 274 272 270 nan nan nan nan nan nan
nan nan nan nan nan nan nan nan nan nan nan nan nan nan nan nan nan nan 261 270 264 260 265 270 275 279 282 274 274 273 275 271 271 267 274 279 285 287 284 279 nan 273 nan nan nan nan nan 272 nan
nan nan nan nan nan nan nan nan nan nan nan nan nan nan nan nan nan nan 248 250 254 255 258 276 273 280 270 268 266 271 271 269 269 271 271 274 276 283 287 291 293 297 293 287 280 nan nan nan nan
nan nan nan nan nan nan nan nan nan nan nan nan nan nan nan nan nan 257 252 250 251 253 256 258 260 263 262 263 271 267 263 257 257 257 263 270 274 286 291 296 299 298 295 298 290 nan nan nan nan
nan nan nan nan nan nan nan nan nan nan nan nan nan nan nan nan 251 255 254 251 251 256 257 258 259 260 263 261 266 267 265 269 268 267 268 262 265 276 277 275 281 288 289 295 298 nan nan nan nan
nan nan nan nan nan nan nan nan nan nan nan nan nan nan nan nan 255 254 254 255 266 258 255 254 252 254 258 261 262 260 261 262 266 266 262 266 267 nan nan nan nan 287 294 295 297 292 285 nan nan
nan nan nan nan nan nan nan nan nan nan nan nan nan nan 251 246 251 257 261 267 263 256 252 254 254 252 nan nan 255 258 260 nan nan nan nan nan nan nan nan nan nan nan nan nan nan 297 297 297 295
nan nan nan nan nan nan nan nan nan nan nan nan nan 265 255 252 245 253 258 254 nan nan nan nan nan nan nan nan nan nan nan nan nan nan nan nan nan nan nan nan nan nan nan nan nan nan nan nan 291
nan nan nan nan nan nan nan nan nan nan nan nan 249 257 254 257 235 nan nan nan nan nan nan nan nan nan nan nan nan nan nan nan nan nan nan nan nan nan nan nan nan nan nan nan nan nan nan nan nan
nan nan nan nan nan nan nan nan nan nan 257 252 247 249 nan 254 nan nan nan nan nan nan nan nan nan nan nan nan nan nan nan nan nan nan nan nan nan nan nan nan nan nan nan nan nan nan nan nan nan
nan nan nan nan nan nan nan nan 226 nan nan nan nan 256 261 nan nan nan nan nan nan nan nan nan nan nan nan nan nan nan nan nan nan nan nan nan nan nan nan nan nan nan nan nan nan nan nan nan nan
nan nan nan nan nan nan nan nan 239 nan nan nan nan nan nan nan nan nan nan nan nan nan nan nan nan nan nan nan nan nan nan nan nan nan nan nan nan nan nan nan nan nan nan nan nan nan nan nan nan
nan nan nan nan nan nan nan nan nan nan nan nan nan nan nan nan nan nan nan nan nan nan nan nan nan nan nan nan nan nan nan nan nan nan nan nan nan nan nan nan nan nan nan nan nan nan nan nan nan